Location: Bannatyne
(13.0833°N, 59.5333°W)
Time: 14:53:31
(UTC+00:00)

Vanguard 3 - Pass Details

Date: 27 January 2020
Orbit: 508 x 3263 km, 33.3° (Epoch: 25 February)

Event Time Altitude Azimuth Distance (km) Brightness Sun altitude
Rises 21:50:45 0° 276° (W) 6,844 13.3 0.5°
Reaches altitude 10° 21:55:41 10° 283° (WNW) 6,030 12.7 -0.6°
Maximum altitude 22:13:42 40° 347° (NNW) 4,104 10.7 -4.8°
Drops below altitude 10° 22:29:21 10° 53° (NE) 5,266 10.7 -8.4°
Enters shadow 22:30:34 - 56° (NE) 5,461 10.7 -8.7°
Sets 22:33:20 0° 61° (ENE) 5,941 - -9.3°
